When you browse on this site, cookies collect data to enhance your experience and personalize the content and advertising you see.
Visit our Privacy Policy to learn more. By continuing to use the site, you agree to this use of cookies and data.
  • In Portugal
  • List of Countries
  • For 7 days
  • Water Temperature
  • Satellite Maps
  • Weather Map
  • Weather Widgets
  • user-avatar
    Login

    Hourly Weather Verhnyaya Vasilevka

    Today, 19 July, Friday

    Time Temperature Precipitation Wind Pressure Humidity
    00:00 +19°C° 0 mm 3 mps 743 mmHg 95%
    01:00 +18°C° 0 mm 3 mps 743 mmHg 96%
    02:00 +18°C° 0 mm 3 mps 743 mmHg 96%
    03:00 +18°C° 0 mm 3 mps 743 mmHg 97%
    04:00 +18°C° 0 mm 3 mps 744 mmHg 95%
    05:00 +19°C° 0 mm 3 mps 744 mmHg 93%
    06:00 +19°C° 0 mm 3 mps 744 mmHg 90%
    07:00 +21°C° 0 mm 4 mps 744 mmHg 87%
    08:00 +22°C° 0 mm 4 mps 744 mmHg 83%
    09:00 +23°C° 0 mm 4 mps 745 mmHg 77%
    10:00 +25°C° 0 mm 4 mps 745 mmHg 74%
    11:00 +26°C° 0 mm 4 mps 745 mmHg 71%
    12:00 +26°C° 0 mm 4 mps 745 mmHg 68%
    13:00 +26°C° 0 mm 4 mps 745 mmHg 66%
    14:00 +27°C° 0 mm 4 mps 745 mmHg 64%
    15:00 +27°C° 0 mm 3 mps 745 mmHg 63%
    16:00 +27°C° 0.1 mm 3 mps 745 mmHg 67%
    17:00 +26°C° 0.1 mm 3 mps 745 mmHg 71%
    18:00 +25°C° 0.1 mm 3 mps 745 mmHg 75%
    19:00 +24°C° 0 mm 2 mps 745 mmHg 78%
    20:00 +21°C° 0 mm 2 mps 746 mmHg 81%
    21:00 +21°C° 0 mm 1 mps 746 mmHg 84%
    22:00 +20°C° 0 mm 1 mps 746 mmHg 84%
    23:00 +20°C° 0 mm 1 mps 746 mmHg 85%

    Tomorrow, 20 July, Saturday

    Time Temperature Precipitation Wind Pressure Humidity
    00:00 +18°C° 0 mm 2 mps 746 mmHg 86%
    01:00 +17°C° 0 mm 2 mps 746 mmHg 87%
    02:00 +18°C° 0 mm 1 mps 746 mmHg 88%
    03:00 +16°C° 0 mm 1 mps 747 mmHg 90%
    04:00 +18°C° 0 mm 1 mps 747 mmHg 88%
    05:00 +19°C° 0 mm 1 mps 747 mmHg 86%
    06:00 +19°C° 0 mm 2 mps 747 mmHg 85%
    07:00 +20°C° 0 mm 2 mps 747 mmHg 79%
    08:00 +22°C° 0 mm 3 mps 747 mmHg 72%
    09:00 +24°C° 0 mm 3 mps 747 mmHg 66%
    10:00 +25°C° 0 mm 3 mps 747 mmHg 64%
    11:00 +25°C° 0 mm 4 mps 748 mmHg 63%
    12:00 +26°C° 0 mm 4 mps 748 mmHg 61%
    13:00 +26°C° 0.2 mm 4 mps 748 mmHg 62%
    14:00 +26°C° 0.2 mm 4 mps 748 mmHg 62%
    15:00 +26°C° 0.2 mm 4 mps 747 mmHg 62%
    16:00 +25°C° 0.2 mm 4 mps 748 mmHg 66%
    17:00 +25°C° 0.2 mm 3 mps 748 mmHg 71%
    18:00 +24°C° 0.2 mm 3 mps 748 mmHg 75%
    19:00 +21°C° 0 mm 3 mps 748 mmHg 77%
    20:00 +20°C° 0 mm 3 mps 748 mmHg 79%
    21:00 +18°C° 0 mm 2 mps 748 mmHg 81%
    22:00 +17°C° 0 mm 3 mps 748 mmHg 84%
    23:00 +17°C° 0 mm 3 mps 748 mmHg 86%

    Day after tomorrow, 21 July, Sunday

    Time Temperature Precipitation Wind Pressure Humidity
    00:00 +16°C° 0 mm 3 mps 748 mmHg 89%
    01:00 +16°C° 0 mm 3 mps 748 mmHg 90%
    02:00 +16°C° 0 mm 3 mps 748 mmHg 92%
    03:00 +14°C° 0 mm 3 mps 748 mmHg 93%
    04:00 +16°C° 0 mm 3 mps 748 mmHg 90%
    05:00 +17°C° 0 mm 4 mps 748 mmHg 87%
    06:00 +18°C° 0 mm 4 mps 748 mmHg 84%
    07:00 +19°C° 0 mm 4 mps 748 mmHg 80%
    08:00 +20°C° 0 mm 5 mps 748 mmHg 75%
    09:00 +22°C° 0 mm 5 mps 748 mmHg 71%
    10:00 +22°C° 0.2 mm 5 mps 748 mmHg 70%
    11:00 +23°C° 0.2 mm 5 mps 748 mmHg 68%
    12:00 +23°C° 0.2 mm 6 mps 748 mmHg 67%
    13:00 +24°C° 0.1 mm 6 mps 748 mmHg 65%
    14:00 +25°C° 0.1 mm 5 mps 748 mmHg 64%
    15:00 +25°C° 0.1 mm 5 mps 747 mmHg 62%
    16:00 +25°C° 0.1 mm 5 mps 747 mmHg 68%
    17:00 +23°C° 0.1 mm 4 mps 747 mmHg 73%
    18:00 +22°C° 0.1 mm 3 mps 747 mmHg 78%
    19:00 +21°C° 0.1 mm 3 mps 747 mmHg 82%
    20:00 +19°C° 0.1 mm 3 mps 747 mmHg 86%
    21:00 +18°C° 0.1 mm 3 mps 747 mmHg 91%
    22:00 +17°C° 0 mm 3 mps 747 mmHg 92%
    23:00 +17°C° 0 mm 3 mps 747 mmHg 94%

    22 July, Monday

    Time Temperature Precipitation Wind Pressure Humidity
    00:00 +16°C° 0 mm 3 mps 747 mmHg 95%
    01:00 +16°C° 0 mm 3 mps 747 mmHg 95%
    02:00 +16°C° 0 mm 3 mps 747 mmHg 96%
    03:00 +16°C° 0 mm 3 mps 746 mmHg 96%
    04:00 +16°C° 0 mm 3 mps 747 mmHg 94%
    05:00 +17°C° 0 mm 3 mps 747 mmHg 92%
    06:00 +17°C° 0 mm 4 mps 747 mmHg 91%
    07:00 +19°C° 0.1 mm 4 mps 747 mmHg 86%
    08:00 +20°C° 0.1 mm 4 mps 746 mmHg 81%
    09:00 +21°C° 0.1 mm 4 mps 746 mmHg 77%
    10:00 +22°C° 0.8 mm 5 mps 746 mmHg 75%
    11:00 +22°C° 0.8 mm 5 mps 746 mmHg 74%
    12:00 +23°C° 0.8 mm 5 mps 746 mmHg 73%
    13:00 +23°C° 0.2 mm 5 mps 746 mmHg 72%
    14:00 +23°C° 0.2 mm 5 mps 746 mmHg 70%
    15:00 +23°C° 0.2 mm 5 mps 746 mmHg 68%
    16:00 +22°C° 0.1 mm 4 mps 746 mmHg 71%
    17:00 +22°C° 0.1 mm 3 mps 746 mmHg 74%
    18:00 +21°C° 0.1 mm 3 mps 746 mmHg 77%
    19:00 +19°C° 0 mm 2 mps 746 mmHg 81%
    20:00 +19°C° 0 mm 1 mps 746 mmHg 85%
    21:00 +18°C° 0 mm 1 mps 746 mmHg 89%
    22:00 +16°C° 0 mm 1 mps 746 mmHg 90%
    23:00 +16°C° 0 mm 1 mps 746 mmHg 91%

    23 July, Tuesday

    Time Temperature Precipitation Wind Pressure Humidity
    00:00 +16°C° 0 mm 1 mps 746 mmHg 91%
    01:00 +15°C° 0 mm 2 mps 746 mmHg 93%
    02:00 +15°C° 0 mm 2 mps 746 mmHg 94%
    03:00 +15°C° 0 mm 2 mps 746 mmHg 95%
    04:00 +16°C° 0 mm 2 mps 746 mmHg 93%
    05:00 +16°C° 0 mm 3 mps 746 mmHg 91%
    06:00 +17°C° 0 mm 3 mps 746 mmHg 90%
    07:00 +18°C° 0 mm 3 mps 746 mmHg 84%
    08:00 +20°C° 0 mm 3 mps 746 mmHg 78%
    09:00 +21°C° 0 mm 3 mps 746 mmHg 71%
    10:00 +22°C° 0 mm 3 mps 746 mmHg 67%
    11:00 +24°C° 0 mm 3 mps 746 mmHg 63%
    12:00 +25°C° 0 mm 3 mps 746 mmHg 59%
    13:00 +25°C° 0.1 mm 3 mps 746 mmHg 59%
    14:00 +25°C° 0.1 mm 4 mps 746 mmHg 60%
    15:00 +25°C° 0.1 mm 4 mps 746 mmHg 60%
    16:00 +24°C° 0 mm 3 mps 746 mmHg 64%
    17:00 +24°C° 0 mm 3 mps 746 mmHg 68%
    18:00 +23°C° 0 mm 2 mps 746 mmHg 72%
    19:00 +21°C° 0 mm 2 mps 746 mmHg 77%
    20:00 +20°C° 0 mm 1 mps 746 mmHg 82%
    21:00 +18°C° 0 mm 1 mps 746 mmHg 88%
    22:00 +18°C° 0 mm 1 mps 746 mmHg 88%
    23:00 +18°C° 0 mm 1 mps 746 mmHg 89%

    24 July, Wednesday

    Time Temperature Precipitation Wind Pressure Humidity
    00:00 +15°C° 0 mm 0 mps 746 mmHg 90%
    01:00 +16°C° 0 mm 1 mps 746 mmHg 90%
    02:00 +16°C° 0 mm 1 mps 746 mmHg 90%
    03:00 +16°C° 0 mm 1 mps 746 mmHg 90%
    04:00 +16°C° 0 mm 1 mps 746 mmHg 88%
    05:00 +18°C° 0 mm 1 mps 746 mmHg 86%
    06:00 +18°C° 0 mm 2 mps 746 mmHg 85%
    07:00 +19°C° 0 mm 2 mps 746 mmHg 82%
    08:00 +20°C° 0 mm 3 mps 746 mmHg 78%
    09:00 +22°C° 0 mm 3 mps 746 mmHg 75%
    10:00 +24°C° 0 mm 3 mps 746 mmHg 73%
    11:00 +25°C° 0 mm 3 mps 746 mmHg 70%
    12:00 +26°C° 0 mm 3 mps 746 mmHg 68%
    13:00 +26°C° 0 mm 3 mps 746 mmHg 65%
    14:00 +27°C° 0 mm 3 mps 746 mmHg 63%
    15:00 +28°C° 0 mm 3 mps 746 mmHg 61%
    16:00 +27°C° 0 mm 4 mps 746 mmHg 65%
    17:00 +27°C° 0 mm 4 mps 746 mmHg 70%
    18:00 +26°C° 0 mm 4 mps 746 mmHg 74%
    19:00 +25°C° 0 mm 5 mps 745 mmHg 73%
    20:00 +23°C° 0 mm 5 mps 745 mmHg 72%
    21:00 +23°C° 0 mm 6 mps 745 mmHg 71%
    22:00 +22°C° 0 mm 5 mps 745 mmHg 71%
    23:00 +22°C° 0 mm 5 mps 745 mmHg 71%
    Show more